Fontana Observed Data For Previous 48 Hours

Caption
Day and Hour Reservoir Elevation (behind dam)* Tailwater Elevation (below dam)* Average Hourly Discharge*
3/18/2019 2 AM EDT 1,674.97 1,279.28 14,137
3/18/2019 3 AM EDT 1,674.92 1,279.29 14,136
3/18/2019 4 AM EDT 1,674.88 1,279.36 14,144
3/18/2019 5 AM EDT 1,674.82 1,279.35 14,145
3/18/2019 6 AM EDT 1,674.77 1,279.26 14,138
3/18/2019 7 AM EDT 1,674.72 1,279.33 14,148
3/18/2019 8 AM EDT 1,674.67 1,279.33 14,141
3/18/2019 9 AM EDT 1,674.63 1,279.36 14,136
3/18/2019 10 AM EDT 1,674.57 1,279.30 14,131
3/18/2019 11 AM EDT 1,674.51 1,279.29 14,133
3/18/2019 12 PM EDT 1,674.46 1,279.29 14,142
3/18/2019 1 PM EDT 1,674.42 1,279.34 14,144
3/18/2019 2 PM EDT 1,674.36 1,279.34 14,052
3/18/2019 3 PM EDT 1,674.30 1,279.27 14,019
3/18/2019 4 PM EDT 1,674.27 1,279.33 14,086
3/18/2019 5 PM EDT 1,674.22 1,279.34 14,143
3/18/2019 6 PM EDT 1,674.16 1,279.31 14,128
3/18/2019 7 PM EDT 1,674.11 1,279.34 14,144
3/18/2019 8 PM EDT 1,674.06 1,279.30 14,138
3/18/2019 9 PM EDT 1,674.03 1,279.31 14,038
3/18/2019 10 PM EDT 1,673.95 1,279.28 13,924
3/18/2019 11 PM EDT 1,673.91 1,279.31 13,928
3/19/2019 12 AM EDT 1,673.86 1,279.30 13,920
3/19/2019 1 AM EDT 1,673.81 1,279.28 13,931
3/19/2019 2 AM EDT 1,673.75 1,279.29 14,034
3/19/2019 3 AM EDT 1,673.71 1,279.26 13,898
3/19/2019 4 AM EDT 1,673.65 1,279.32 13,910
3/19/2019 5 AM EDT 1,673.60 1,279.22 13,910
3/19/2019 6 AM EDT 1,673.54 1,279.31 13,919
3/19/2019 7 AM EDT 1,673.49 1,279.21 13,910
3/19/2019 8 AM EDT 1,673.43 1,279.26 13,970
3/19/2019 9 AM EDT 1,673.38 1,279.28 13,898
3/19/2019 10 AM EDT 1,673.32 1,279.24 13,911
3/19/2019 11 AM EDT 1,673.26 1,279.28 13,889
3/19/2019 12 PM EDT 1,673.20 1,279.24 13,904
3/19/2019 1 PM EDT 1,673.15 1,279.24 13,905
3/19/2019 2 PM EDT 1,673.08 1,279.33 14,043
3/19/2019 3 PM EDT 1,673.02 1,279.32 14,100
3/19/2019 4 PM EDT 1,672.95 1,279.31 14,116
3/19/2019 5 PM EDT 1,672.89 1,279.36 14,114
3/19/2019 6 PM EDT 1,672.82 1,279.34 14,107
3/19/2019 7 PM EDT 1,672.75 1,279.33 14,097
3/19/2019 8 PM EDT 1,672.69 1,279.31 14,094
3/19/2019 9 PM EDT 1,672.63 1,279.24 13,890
3/19/2019 10 PM EDT 1,672.59 1,279.31 13,891
3/19/2019 11 PM EDT 1,672.52 1,279.26 13,884
3/20/2019 12 AM EDT 1,672.46 1,279.29 13,887
3/20/2019 1 AM EDT 1,672.40 1,279.25 13,884
3/20/2019 2 AM EDT 1,672.34 1,279.28 13,879
3/20/2019 3 AM EDT 1,672.28 1,279.27 13,877
3/20/2019 4 AM EDT 1,672.22 1,279.27 13,881
3/20/2019 5 AM EDT 1,672.16 1,279.26 13,868
3/20/2019 6 AM EDT 1,672.09 1,279.30 13,866
3/20/2019 7 AM EDT 1,672.02 1,279.25 13,863
3/20/2019 8 AM EDT 1,671.97 1,279.32 14,015
3/20/2019 9 AM EDT 1,671.90 1,279.26 13,925

Elevations are in feet above sea level. Discharges are in cubic feet per second and are reported at the end of the hour.